This is the latest recevied weather packets stored in our database for station/object KD2VWU. If no packets are shown the sender has not sent any weather packets the latest 10 day(s).
| Time | Temp. | Humidity | Pressure | Rain* | Wind** | Luminosity | Snow |
|---|---|---|---|---|---|---|---|
| 1777938066 | 16.11° C | 60% | 1006.1 hPa | 0 mm | - | - | - |
| 1777937762 | 16.11° C | 60% | 1005.9 hPa | 0 mm | - | - | - |
| 1777937458 | 16.67° C | 59% | 1005.7 hPa | 0 mm | - | - | - |
| 1777937156 | 16.67° C | 58% | 1005.7 hPa | 0 mm | - | - | - |
| 1777936853 | 17.22° C | 58% | 1005.6 hPa | 0 mm | - | - | - |
| 1777936549 | 17.22° C | 57% | 1005.7 hPa | 0 mm | - | - | - |
| 1777936245 | 17.78° C | 56% | 1005.4 hPa | 0 mm | - | - | - |
| 1777935942 | 17.78° C | 55% | 1005.7 hPa | 0 mm | - | - | - |
| 1777935641 | 17.78° C | 55% | 1005.6 hPa | 0 mm | - | - | - |
| 1777935338 | 18.33° C | 53% | 1005.5 hPa | 0 mm | - | - | - |
| 1777935035 | 18.89° C | 54% | 1005.4 hPa | 0 mm | - | - | - |
| 1777934731 | 18.89° C | 50% | 1005.4 hPa | 0 mm | - | - | - |
| 1777934429 | 18.89° C | 50% | 1005.3 hPa | 0 mm | - | - | - |
| 1777934125 | 18.89° C | 50% | 1005.5 hPa | 0 mm | - | - | - |
| 1777933821 | 19.44° C | 49% | 1005.4 hPa | 0 mm | - | - | - |
| 1777933518 | 20° C | 49% | 1005.4 hPa | 0 mm | - | - | - |
| 1777933216 | 20° C | 47% | 1005.6 hPa | 0 mm | - | - | - |
| 1777932913 | 20.56° C | 47% | 1005.4 hPa | 0 mm | - | - | - |
| 1777932610 | 20.56° C | 45% | 1005.5 hPa | 0 mm | - | - | - |
| 1777932306 | 21.11° C | 41% | 1005.3 hPa | 0 mm | - | - | - |
| 1777932003 | 21.11° C | 41% | 1005.5 hPa | 0 mm | - | - | - |
| 1777931700 | 21.11° C | 38% | 1005.4 hPa | 0 mm | - | - | - |
| 1777931396 | 21.11° C | 37% | 1005.6 hPa | 0 mm | - | - | - |
| 1777931093 | 21.11° C | 36% | 1005.6 hPa | 0 mm | - | - | - |
| 1777930789 | 21.11° C | 37% | 1005.8 hPa | 0 mm | - | - | - |
* Rain latest hour (hover to see other rain measurements)
** Current wind speed in m/s (hover to see current wind gust speed)